| time (UTC) | temp F | wind direction | speed MPH | gust MPH | rain 1hr in | rain 24hr in | rain mn in | humidity % | barometer mb |
| 20260506112456 | 56 | 160 | 1.0 | 4.0 | 0.00 | 0.00 | 0.00 | 75 | 1011.7 |
| 20260506111955 | 56 | 86 | 1.0 | 5.0 | 0.00 | 0.00 | 0.00 | 75 | 1011.6 |
| 20260506111456 | 57 | 238 | 0.0 | 5.0 | 0.00 | 0.00 | 0.00 | 74 | 1011.4 |
| 20260506110957 | 57 | 99 | 0.0 | 3.0 | 0.00 | 0.00 | 0.00 | 75 | 1011.2 |
| 20260506110455 | 57 | 244 | 0.0 | 3.0 | 0.00 | 0.00 | 0.00 | 74 | 1011.3 |
| 20260506105955 | 57 | 219 | 0.0 | 2.0 | 0.00 | 0.00 | 0.00 | 75 | 1011.3 |
| 20260506105504 | 57 | 16 | 1.0 | 4.0 | 0.00 | 0.00 | 0.00 | 74 | 1010.8 |
| 20260506105455 | 57 | 193 | 0.0 | 5.0 | 0.00 | 0.00 | 0.00 | 75 | 1011.1 |
| 20260506104956 | 57 | 239 | 1.0 | 5.0 | 0.00 | 0.00 | 0.00 | 75 | 1010.8 |
| 20260506104456 | 57 | 229 | 1.0 | 4.0 | 0.00 | 0.00 | 0.00 | 74 | 1011.0 |
| 20260506103455 | 57 | 228 | 0.0 | 4.0 | 0.00 | 0.00 | 0.00 | 74 | 1010.7 |
| 20260506103001 | 58 | 105 | 1.0 | 4.0 | 0.00 | 0.00 | 0.00 | 74 | 1010.6 |
| 20260506102955 | 57 | 237 | 0.0 | 4.0 | 0.00 | 0.00 | 0.00 | 74 | 1010.7 |
| 20260506102609 | 58 | 141 | 1.0 | 4.0 | 0.00 | 0.00 | 0.00 | 75 | 1010.4 |
| 20260506102108 | 58 | 257 | 1.0 | 4.0 | 0.00 | 0.00 | 0.00 | 74 | 1010.3 |
| 20260506101455 | 58 | 86 | 0.0 | 3.0 | 0.00 | 0.00 | 0.00 | 75 | 1010.4 |
| 20260506100456 | 58 | 205 | 1.0 | 5.0 | 0.00 | 0.00 | 0.00 | 74 | 1010.3 |
| 20260506095956 | 58 | 83 | 0.0 | 5.0 | 0.00 | 0.00 | 0.00 | 74 | 1010.2 |
| 20260506095454 | 58 | 312 | 0.0 | 2.0 | 0.00 | 0.00 | 0.00 | 74 | 1010.0 |
| 20260506094952 | 58 | 226 | 0.0 | 2.0 | 0.00 | 0.00 | 0.00 | 75 | 1009.9 |
| 20260506094453 | 58 | 231 | 1.0 | 3.0 | 0.00 | 0.00 | 0.00 | 75 | 1009.8 |
| 20260506093952 | 58 | 208 | 1.0 | 5.0 | 0.00 | 0.00 | 0.00 | 75 | 1009.9 |
| 20260506093453 | 58 | 170 | 0.0 | 5.0 | 0.00 | 0.00 | 0.00 | 75 | 1010.0 |
| 20260506092952 | 59 | 206 | 0.0 | 3.0 | 0.00 | 0.00 | 0.00 | 75 | 1009.9 |
| 20260506092453 | 59 | 231 | 0.0 | 2.0 | 0.00 | 0.00 | 0.00 | 75 | 1009.7 |
| 20260506091952 | 59 | 230 | 0.0 | 4.0 | 0.00 | 0.00 | 0.00 | 75 | 1009.8 |
| 20260506091453 | 59 | 79 | 0.0 | 4.0 | 0.00 | 0.00 | 0.00 | 75 | 1009.7 |
| 20260506090953 | 59 | 236 | 0.0 | 2.0 | 0.00 | 0.00 | 0.00 | 75 | 1009.7 |
| 20260506090453 | 59 | 66 | 0.0 | 3.0 | 0.00 | 0.00 | 0.00 | 76 | 1009.7 |
| 20260506085958 | 59 | 252 | 0.0 | 3.0 | 0.00 | 0.00 | 0.00 | 75 | 1009.6 |
| 20260506085952 | 59 | 243 | 1.0 | 5.0 | 0.00 | 0.00 | 0.00 | 75 | 1009.7 |
| 20260506085453 | 59 | 133 | 0.0 | 5.0 | 0.00 | 0.00 | 0.00 | 75 | 1009.6 |
| 20260506085106 | 59 | 231 | 0.0 | 2.0 | 0.00 | 0.00 | 0.00 | 75 | 1009.6 |
| 20260506083952 | 60 | 243 | 0.0 | 3.0 | 0.00 | 0.00 | 0.00 | 75 | 1009.5 |
| 20260506083456 | 60 | 155 | 0.0 | 6.0 | 0.00 | 0.00 | 0.00 | 75 | 1009.2 |
| 20260506083452 | 60 | 236 | 1.0 | 6.0 | 0.00 | 0.00 | 0.00 | 75 | 1009.4 |
| 20260506082451 | 60 | 240 | 0.0 | 2.0 | 0.00 | 0.00 | 0.00 | 76 | 1009.3 |
| 20260506081952 | 60 | 264 | 0.0 | 4.0 | 0.00 | 0.00 | 0.00 | 75 | 1009.3 |
| 20260506081450 | 60 | 232 | 0.0 | 4.0 | 0.00 | 0.00 | 0.00 | 75 | 1009.4 |
| 20260506080948 | 60 | 174 | 0.0 | 4.0 | 0.00 | 0.00 | 0.00 | 75 | 1009.3 |
| 20260506080449 | 60 | 226 | 0.0 | 2.0 | 0.00 | 0.00 | 0.00 | 75 | 1009.3 |
| 20260506073444 | 61 | 219 | 0.0 | 1.0 | 0.00 | 0.00 | 0.00 | 77 | 1008.8 |
| 20260506073440 | 61 | 196 | 0.0 | 3.0 | 0.00 | 0.00 | 0.00 | 77 | 1008.8 |
| 20260506072447 | 61 | 75 | 0.0 | 2.0 | 0.00 | 0.00 | 0.00 | 77 | 1008.9 |
| 20260506072443 | 61 | 219 | 0.0 | 1.0 | 0.00 | 0.00 | 0.00 | 76 | 1008.8 |
| 20260506071440 | 61 | 58 | 0.0 | 2.0 | 0.00 | 0.00 | 0.00 | 76 | 1009.1 |
| 20260506070946 | 61 | 214 | 0.0 | 4.0 | 0.00 | 0.00 | 0.00 | 76 | 1008.9 |
| 20260506070942 | 61 | 223 | 0.0 | 4.0 | 0.00 | 0.00 | 0.00 | 76 | 1009.0 |
| 20260506062436 | 61 | 104 | 0.0 | 2.0 | 0.00 | 0.00 | 0.00 | 77 | 1009.1 |
| 20260506061936 | 61 | 183 | 0.0 | 3.0 | 0.00 | 0.00 | 0.00 | 77 | 1008.9 |
| 20260506061436 | 61 | 102 | 1.0 | 5.0 | 0.00 | 0.00 | 0.00 | 77 | 1008.9 |
| 20260506060935 | 61 | 221 | 1.0 | 5.0 | 0.00 | 0.00 | 0.00 | 77 | 1009.0 |
| 20260506060435 | 62 | 227 | 0.0 | 3.0 | 0.00 | 0.00 | 0.00 | 77 | 1009.1 |
| 20260506050427 | 63 | 34 | 1.0 | 5.0 | 0.00 | 0.00 | 0.00 | 77 | 1009.1 |
| 20260506044926 | 64 | 203 | 0.0 | 3.0 | 0.00 | 0.00 | 0.00 | 77 | 1008.9 |
| 20260506044426 | 64 | 260 | 1.0 | 5.0 | 0.00 | 0.00 | 0.00 | 76 | 1008.8 |
| 20260506043924 | 64 | 241 | 1.0 | 8.0 | 0.00 | 0.00 | 0.00 | 76 | 1008.9 |
| 20260506043423 | 64 | 258 | 1.0 | 8.0 | 0.00 | 0.00 | 0.00 | 76 | 1009.0 |
| 20260506042927 | 65 | 162 | 1.0 | 4.0 | 0.00 | 0.00 | 0.00 | 76 | 1008.9 |
| 20260506042922 | 64 | 208 | 1.0 | 4.0 | 0.00 | 0.00 | 0.00 | 76 | 1008.9 |
| 20260506041928 | 65 | 239 | 1.0 | 6.0 | 0.00 | 0.00 | 0.00 | 75 | 1008.9 |
| 20260506041922 | 65 | 278 | 1.0 | 4.0 | 0.00 | 0.00 | 0.00 | 76 | 1009.0 |
| 20260506041422 | 65 | 281 | 1.0 | 6.0 | 0.00 | 0.00 | 0.00 | 75 | 1009.0 |
| 20260506040536 | 66 | 20 | 1.0 | 6.0 | 0.00 | 0.00 | 0.00 | 74 | 1008.5 |
| 20260506040426 | 66 | 236 | 1.0 | 8.0 | 0.00 | 0.00 | 0.00 | 74 | 1008.8 |
| 20260506040422 | 65 | 249 | 1.0 | 8.0 | 0.00 | 0.00 | 0.00 | 75 | 1008.8 |
| 20260506035422 | 66 | 155 | 1.0 | 6.0 | 0.00 | 0.00 | 0.00 | 75 | 1008.7 |
| 20260506034423 | 66 | 47 | 1.0 | 6.0 | 0.00 | 0.00 | 0.00 | 74 | 1008.3 |
| 20260506033920 | 66 | 232 | 1.0 | 6.0 | 0.00 | 0.00 | 0.00 | 74 | 1008.1 |
| 20260506033420 | 67 | 34 | 1.0 | 7.0 | 0.00 | 0.00 | 0.00 | 73 | 1007.9 |
| 20260506032921 | 67 | 237 | 1.0 | 7.0 | 0.00 | 0.00 | 0.00 | 73 | 1008.0 |
| 20260506032420 | 68 | 196 | 1.0 | 5.0 | 0.00 | 0.00 | 0.00 | 73 | 1007.8 |
| 20260506031920 | 68 | 256 | 1.0 | 5.0 | 0.00 | 0.00 | 0.00 | 73 | 1007.8 |
| 20260506031426 | 68 | 218 | 1.0 | 5.0 | 0.00 | 0.00 | 0.00 | 73 | 1007.5 |
| 20260506031421 | 68 | 132 | 1.0 | 5.0 | 0.00 | 0.00 | 0.00 | 73 | 1007.7 |
| 20260506030420 | 69 | 213 | 1.0 | 5.0 | 0.00 | 0.00 | 0.00 | 72 | 1007.6 |
| 20260506025922 | 69 | 245 | 0.0 | 5.0 | 0.00 | 0.00 | 0.00 | 71 | 1007.4 |
| 20260506025918 | 69 | 63 | 0.0 | 5.0 | 0.00 | 0.00 | 0.00 | 72 | 1007.6 |
| 20260506024923 | 69 | 49 | 1.0 | 7.0 | 0.00 | 0.00 | 0.00 | 71 | 1007.4 |
| 20260506024918 | 69 | 201 | 0.0 | 3.0 | 0.00 | 0.00 | 0.00 | 71 | 1007.4 |
| 20260506023918 | 69 | 257 | 1.0 | 7.0 | 0.00 | 0.00 | 0.00 | 71 | 1007.2 |
| 20260506023419 | 69 | 225 | 1.0 | 4.0 | 0.00 | 0.00 | 0.00 | 70 | 1007.1 |
| 20260506023032 | 70 | 238 | 1.0 | 4.0 | 0.00 | 0.00 | 0.00 | 69 | 1006.9 |
| 20260506022922 | 70 | 169 | 1.0 | 4.0 | 0.00 | 0.00 | 0.00 | 69 | 1007.0 |
| 20260506022918 | 69 | 265 | 1.0 | 4.0 | 0.00 | 0.00 | 0.00 | 70 | 1007.1 |
| 20260506021422 | 70 | 323 | 1.0 | 6.0 | 0.00 | 0.00 | 0.00 | 68 | 1006.6 |
| 20260506021416 | 70 | 290 | 1.0 | 5.0 | 0.00 | 0.00 | 0.00 | 69 | 1006.7 |
| 20260506020916 | 70 | 253 | 1.0 | 6.0 | 0.00 | 0.00 | 0.00 | 69 | 1006.6 |
| 20260506015916 | 71 | 226 | 1.0 | 6.0 | 0.00 | 0.00 | 0.00 | 68 | 1006.4 |
| 20260506015416 | 71 | 203 | 1.0 | 6.0 | 0.00 | 0.00 | 0.00 | 69 | 1006.1 |
| 20260506014920 | 72 | 236 | 1.0 | 7.0 | 0.00 | 0.00 | 0.00 | 68 | 1005.6 |
| 20260506014916 | 71 | 252 | 1.0 | 7.0 | 0.00 | 0.00 | 0.00 | 69 | 1006.0 |
| 20260506014535 | 72 | 252 | 0.0 | 5.0 | 0.00 | 0.00 | 0.00 | 67 | 1005.7 |
| 20260506014530 | 72 | 250 | 0.0 | 3.0 | 0.00 | 0.00 | 0.00 | 68 | 1005.7 |
| 20260506013416 | 72 | 63 | 0.0 | 5.0 | 0.00 | 0.00 | 0.00 | 68 | 1005.7 |
| 20260506013029 | 73 | 207 | 1.0 | 6.0 | 0.00 | 0.00 | 0.00 | 67 | 1005.4 |
| 20260506012528 | 73 | 285 | 1.0 | 6.0 | 0.00 | 0.00 | 0.00 | 67 | 1005.5 |
| 20260506011415 | 73 | 278 | 0.0 | 4.0 | 0.00 | 0.00 | 0.00 | 67 | 1005.3 |
| 20260506010914 | 73 | 148 | 0.0 | 3.0 | 0.00 | 0.00 | 0.00 | 66 | 1005.3 |
| 20260506010414 | 74 | 236 | 1.0 | 4.0 | 0.00 | 0.00 | 0.00 | 66 | 1005.4 |
| 20260506005919 | 74 | 352 | 0.0 | 4.0 | 0.00 | 0.00 | 0.00 | 66 | 1005.2 |
| 20260506005914 | 74 | 79 | 0.0 | 4.0 | 0.00 | 0.00 | 0.00 | 65 | 1005.4 |
| 20260506004915 | 75 | 259 | 1.0 | 6.0 | 0.00 | 0.00 | 0.00 | 66 | 1005.1 |
| 20260506004412 | 75 | 295 | 1.0 | 6.0 | 0.00 | 0.00 | 0.00 | 65 | 1005.2 |
| 20260506003912 | 76 | 205 | 1.0 | 4.0 | 0.00 | 0.00 | 0.00 | 64 | 1005.0 |
| 20260506003413 | 76 | 247 | 1.0 | 5.0 | 0.00 | 0.00 | 0.00 | 64 | 1004.5 |
| 20260506002911 | 77 | 91 | 1.0 | 5.0 | 0.00 | 0.00 | 0.00 | 64 | 1004.5 |
| 20260506002411 | 78 | 89 | 1.0 | 5.0 | 0.00 | 0.00 | 0.00 | 63 | 1004.6 |
| 20260506001913 | 78 | 311 | 1.0 | 5.0 | 0.00 | 0.00 | 0.00 | 62 | 1004.4 |
| 20260506001417 | 79 | 68 | 1.0 | 5.0 | 0.00 | 0.00 | 0.00 | 60 | 1004.3 |
| 20260506001413 | 78 | 233 | 1.0 | 5.0 | 0.00 | 0.00 | 0.00 | 61 | 1004.3 |
| 20260506000412 | 79 | 238 | 1.0 | 6.0 | 0.00 | 0.00 | 0.00 | 59 | 1004.2 |
| 20260505235909 | 80 | 247 | 1.0 | 7.0 | 0.00 | 0.00 | 0.00 | 58 | 1004.3 |
| 20260505235411 | 80 | 235 | 1.0 | 7.0 | 0.00 | 0.00 | 0.00 | 59 | 1004.2 |
| 20260505234910 | 81 | 266 | 1.0 | 5.0 | 0.00 | 0.00 | 0.00 | 58 | 1004.1 |
| 20260505234411 | 81 | 180 | 1.0 | 4.0 | 0.00 | 0.00 | 0.00 | 58 | 1004.0 |
| 20260505233908 | 82 | 115 | 1.0 | 5.0 | 0.00 | 0.00 | 0.00 | 57 | 1003.9 |
| 20260505233408 | 82 | 191 | 1.0 | 6.0 | 0.00 | 0.00 | 0.00 | 55 | 1003.9 |
| 20260505232908 | 83 | 50 | 1.0 | 6.0 | 0.00 | 0.00 | 0.00 | 55 | 1003.8 |
| 20260505232410 | 83 | 248 | 1.0 | 6.0 | 0.00 | 0.00 | 0.00 | 55 | 1003.8 |
| 20260505231907 | 84 | 79 | 2.0 | 8.0 | 0.00 | 0.00 | 0.00 | 54 | 1004.0 |
| 20260505231406 | 84 | 225 | 2.0 | 8.0 | 0.00 | 0.00 | 0.00 | 53 | 1003.8 |
| 20260505230909 | 87 | 219 | 2.0 | 13.0 | 0.00 | 0.00 | 0.00 | 51 | 1003.5 |
| 20260505230904 | 86 | 276 | 3.0 | 13.0 | 0.00 | 0.00 | 0.00 | 52 | 1003.7 |
| 20260505225910 | 88 | 262 | 1.0 | 8.0 | 0.00 | 0.00 | 0.00 | 48 | 1003.4 |
| 20260505225904 | 88 | 103 | 1.0 | 9.0 | 0.00 | 0.00 | 0.00 | 50 | 1003.7 |
| 20260505225405 | 88 | 167 | 1.0 | 9.0 | 0.00 | 0.00 | 0.00 | 51 | 1003.5 |
| 20260505224404 | 89 | 226 | 1.0 | 8.0 | 0.00 | 0.00 | 0.00 | 47 | 1003.2 |
| 20260505223905 | 90 | 47 | 1.0 | 8.0 | 0.00 | 0.00 | 0.00 | 46 | 1003.1 |
| 20260505223403 | 90 | 265 | 1.0 | 8.0 | 0.00 | 0.00 | 0.00 | 44 | 1003.2 |
| 20260505222902 | 91 | 107 | 1.0 | 4.0 | 0.00 | 0.00 | 0.00 | 43 | 1003.1 |
| 20260505222401 | 91 | 241 | 1.0 | 5.0 | 0.00 | 0.00 | 0.00 | 42 | 1003.1 |
| 20260505221859 | 92 | 108 | 2.0 | 7.0 | 0.00 | 0.00 | 0.00 | 42 | 1003.0 |
| 20260505221359 | 92 | 103 | 2.0 | 7.0 | 0.00 | 0.00 | 0.00 | 43 | 1002.9 |
| 20260505220900 | 92 | 293 | 1.0 | 6.0 | 0.00 | 0.00 | 0.00 | 42 | 1002.9 |
| 20260505220401 | 92 | 283 | 2.0 | 8.0 | 0.00 | 0.00 | 0.00 | 42 | 1002.8 |
| 20260505215900 | 93 | 232 | 1.0 | 8.0 | 0.00 | 0.00 | 0.00 | 41 | 1002.8 |
| 20260505215401 | 95 | 25 | 1.0 | 9.0 | 0.00 | 0.00 | 0.00 | 42 | 1002.8 |
| 20260505214900 | 96 | 277 | 1.0 | 9.0 | 0.00 | 0.00 | 0.00 | 40 | 1002.8 |
| 20260505214359 | 97 | 207 | 0.0 | 4.0 | 0.00 | 0.00 | 0.00 | 42 | 1002.9 |
| 20260505213858 | 96 | 210 | 0.0 | 2.0 | 0.00 | 0.00 | 0.00 | 43 | 1002.8 |
| 20260505213359 | 96 | 233 | 0.0 | 3.0 | 0.00 | 0.00 | 0.00 | 41 | 1002.8 |
| 20260505212901 | 95 | 226 | 1.0 | 4.0 | 0.00 | 0.00 | 0.00 | 43 | 1002.8 |
| 20260505212857 | 94 | 274 | 1.0 | 8.0 | 0.00 | 0.00 | 0.00 | 41 | 1002.7 |
| 20260505211901 | 95 | 290 | 1.0 | 7.0 | 0.00 | 0.00 | 0.00 | 41 | 1002.9 |
| 20260505211856 | 94 | 256 | 1.0 | 8.0 | 0.00 | 0.00 | 0.00 | 42 | 1002.8 |
| 20260505211510 | 95 | 278 | 1.0 | 6.0 | 0.00 | 0.00 | 0.00 | 43 | 1003.1 |
| 20260505210855 | 95 | 210 | 1.0 | 6.0 | 0.00 | 0.00 | 0.00 | 41 | 1003.1 |
| 20260505205855 | 95 | 238 | 1.0 | 6.0 | 0.00 | 0.00 | 0.00 | 44 | 1003.1 |
| 20260505205356 | 95 | 252 | 1.0 | 5.0 | 0.00 | 0.00 | 0.00 | 45 | 1003.1 |
| 20260505204859 | 94 | 189 | 1.0 | 9.0 | 0.00 | 0.00 | 0.00 | 43 | 1003.3 |
| 20260505204855 | 94 | 244 | 1.0 | 9.0 | 0.00 | 0.00 | 0.00 | 45 | 1003.3 |
| 20260505203853 | 94 | 229 | 1.0 | 9.0 | 0.00 | 0.00 | 0.00 | 45 | 1003.4 |
| 20260505203352 | 94 | 254 | 1.0 | 9.0 | 0.00 | 0.00 | 0.00 | 46 | 1003.4 |
| 20260505202851 | 94 | 225 | 1.0 | 7.0 | 0.00 | 0.00 | 0.00 | 45 | 1003.4 |
| 20260505202351 | 94 | 263 | 1.0 | 6.0 | 0.00 | 0.00 | 0.00 | 47 | 1003.4 |
| 20260505201852 | 94 | 231 | 1.0 | 5.0 | 0.00 | 0.00 | 0.00 | 46 | 1003.7 |
| 20260505201352 | 94 | 141 | 1.0 | 7.0 | 0.00 | 0.00 | 0.00 | 47 | 1003.7 |
| 20260505200857 | 93 | 296 | 1.0 | 7.0 | 0.00 | 0.00 | 0.00 | 52 | 1003.7 |
| 20260505200852 | 94 | 168 | 1.0 | 7.0 | 0.00 | 0.00 | 0.00 | 49 | 1003.6 |
| 20260505200351 | 94 | 231 | 1.0 | 7.0 | 0.00 | 0.00 | 0.00 | 46 | 1003.7 |
| 20260505195852 | 94 | 239 | 1.0 | 7.0 | 0.00 | 0.00 | 0.00 | 51 | 1003.7 |
| 20260505194851 | 93 | 230 | 1.0 | 5.0 | 0.00 | 0.00 | 0.00 | 51 | 1003.7 |
| 20260505194352 | 93 | 253 | 0.0 | 5.0 | 0.00 | 0.00 | 0.00 | 51 | 1003.8 |
| 20260505193851 | 93 | 98 | 1.0 | 4.0 | 0.00 | 0.00 | 0.00 | 53 | 1003.7 |
| 20260505193356 | 92 | 253 | 1.0 | 8.0 | 0.00 | 0.00 | 0.00 | 54 | 1003.8 |
| 20260505193352 | 92 | 232 | 1.0 | 8.0 | 0.00 | 0.00 | 0.00 | 54 | 1003.7 |
| 20260505192351 | 92 | 214 | 1.0 | 5.0 | 0.00 | 0.00 | 0.00 | 53 | 1003.9 |
| 20260505191851 | 91 | 238 | 1.0 | 6.0 | 0.00 | 0.00 | 0.00 | 53 | 1003.8 |
| 20260505191353 | 91 | 230 | 1.0 | 6.0 | 0.00 | 0.00 | 0.00 | 56 | 1003.8 |
| 20260505190851 | 90 | 24 | 1.0 | 7.0 | 0.00 | 0.00 | 0.00 | 54 | 1003.9 |
| 20260505190351 | 90 | 240 | 1.0 | 7.0 | 0.00 | 0.00 | 0.00 | 56 | 1003.8 |
| 20260505185851 | 89 | 297 | 2.0 | 7.0 | 0.00 | 0.00 | 0.00 | 58 | 1003.9 |
| 20260505185352 | 89 | 239 | 2.0 | 6.0 | 0.00 | 0.00 | 0.00 | 59 | 1003.9 |
| 20260505184853 | 89 | 250 | 1.0 | 6.0 | 0.00 | 0.00 | 0.00 | 58 | 1003.9 |
| 20260505184354 | 88 | 234 | 2.0 | 6.0 | 0.00 | 0.00 | 0.00 | 60 | 1004.0 |
| 20260505184350 | 88 | 204 | 1.0 | 5.0 | 0.00 | 0.00 | 0.00 | 58 | 1004.0 |
| 20260505183350 | 87 | 206 | 3.0 | 8.0 | 0.00 | 0.00 | 0.00 | 59 | 1004.0 |
| 20260505182849 | 87 | 219 | 2.0 | 8.0 | 0.00 | 0.00 | 0.00 | 59 | 1004.1 |
| 20260505182350 | 87 | 250 | 1.0 | 6.0 | 0.00 | 0.00 | 0.00 | 59 | 1004.1 |
| 20260505181856 | 87 | 232 | 2.0 | 9.0 | 0.00 | 0.00 | 0.00 | 61 | 1004.2 |
| 20260505181849 | 87 | 275 | 2.0 | 6.0 | 0.00 | 0.00 | 0.00 | 60 | 1004.1 |
| 20260505180851 | 86 | 224 | 3.0 | 9.0 | 0.00 | 0.00 | 0.00 | 60 | 1004.1 |
| 20260505180349 | 86 | 76 | 2.0 | 8.0 | 0.00 | 0.00 | 0.00 | 60 | 1004.1 |
| 20260505175852 | 86 | 309 | 2.0 | 9.0 | 0.00 | 0.00 | 0.00 | 63 | 1004.2 |
| 20260505175353 | 86 | 215 | 2.0 | 9.0 | 0.00 | 0.00 | 0.00 | 62 | 1004.3 |
| 20260505174850 | 85 | 177 | 2.0 | 9.0 | 0.00 | 0.00 | 0.00 | 63 | 1004.2 |
| 20260505174349 | 85 | 236 | 3.0 | 9.0 | 0.00 | 0.00 | 0.00 | 63 | 1004.2 |
| 20260505173849 | 86 | 208 | 3.0 | 8.0 | 0.00 | 0.00 | 0.00 | 61 | 1004.3 |
| 20260505173350 | 86 | 240 | 2.0 | 8.0 | 0.00 | 0.00 | 0.00 | 61 | 1004.3 |
| 20260505172848 | 87 | 238 | 1.0 | 6.0 | 0.00 | 0.00 | 0.00 | 61 | 1004.3 |
| 20260505172348 | 86 | 200 | 1.0 | 5.0 | 0.00 | 0.00 | 0.00 | 62 | 1004.3 |
| 20260505171851 | 85 | 243 | 2.0 | 7.0 | 0.00 | 0.00 | 0.00 | 63 | 1004.3 |
| 20260505171846 | 85 | 210 | 2.0 | 7.0 | 0.00 | 0.00 | 0.00 | 64 | 1004.2 |
| 20260505170843 | 85 | 217 | 2.0 | 7.0 | 0.00 | 0.00 | 0.00 | 63 | 1004.3 |
| 20260505170351 | 85 | 177 | 2.0 | 10.0 | 0.00 | 0.00 | 0.00 | 64 | 1004.3 |
| 20260505170344 | 85 | 225 | 2.0 | 7.0 | 0.00 | 0.00 | 0.00 | 63 | 1004.3 |
| 20260505165341 | 85 | 217 | 2.0 | 10.0 | 0.00 | 0.00 | 0.00 | 63 | 1004.2 |
| 20260505164838 | 85 | 266 | 2.0 | 9.0 | 0.00 | 0.00 | 0.00 | 64 | 1004.2 |
| 20260505164338 | 84 | 137 | 3.0 | 9.0 | 0.00 | 0.00 | 0.00 | 66 | 1004.3 |
| 20260505163841 | 83 | 323 | 2.0 | 8.0 | 0.00 | 0.00 | 0.00 | 66 | 1004.3 |
| 20260505163837 | 83 | 167 | 3.0 | 9.0 | 0.00 | 0.00 | 0.00 | 66 | 1004.3 |
| 20260505162841 | 83 | 252 | 2.0 | 10.0 | 0.00 | 0.00 | 0.00 | 67 | 1004.1 |
| 20260505162837 | 83 | 240 | 2.0 | 8.0 | 0.00 | 0.00 | 0.00 | 66 | 1004.1 |
| 20260505161837 | 83 | 245 | 3.0 | 10.0 | 0.00 | 0.00 | 0.00 | 69 | 1004.2 |
| 20260505161335 | 82 | 238 | 3.0 | 8.0 | 0.00 | 0.00 | 0.00 | 68 | 1004.2 |
| 20260505160835 | 82 | 347 | 3.0 | 12.0 | 0.00 | 0.00 | 0.00 | 69 | 1004.2 |
| 20260505160335 | 82 | 314 | 3.0 | 12.0 | 0.00 | 0.00 | 0.00 | 69 | 1004.0 |
| 20260505153331 | 79 | 79 | 2.0 | 9.0 | 0.00 | 0.00 | 0.00 | 73 | 1003.7 |
| 20260505152831 | 79 | 203 | 2.0 | 9.0 | 0.00 | 0.00 | 0.00 | 74 | 1003.7 |
| 20260505152331 | 79 | 252 | 2.0 | 9.0 | 0.00 | 0.00 | 0.00 | 73 | 1003.8 |
| 20260505151831 | 79 | 136 | 2.0 | 8.0 | 0.00 | 0.00 | 0.00 | 74 | 1003.9 |
| 20260505151335 | 78 | 178 | 2.0 | 9.0 | 0.00 | 0.00 | 0.00 | 76 | 1003.9 |
| 20260505151331 | 78 | 83 | 2.0 | 6.0 | 0.00 | 0.00 | 0.00 | 75 | 1003.9 |
| 20260505150330 | 77 | 153 | 3.0 | 9.0 | 0.00 | 0.00 | 0.00 | 77 | 1003.9 |
| 20260505124326 | 70 | 229 | 2.0 | 7.0 | 0.00 | 0.00 | 0.00 | 84 | 1003.3 |
| 20260505124321 | 71 | 219 | 1.0 | 7.0 | 0.00 | 0.00 | 0.00 | 84 | 1003.4 |
| 20260505123321 | 70 | 214 | 1.0 | 6.0 | 0.00 | 0.00 | 0.00 | 84 | 1003.2 |
| 20260505122821 | 70 | 231 | 1.0 | 5.0 | 0.00 | 0.00 | 0.00 | 84 | 1003.1 |
| 20260505122322 | 70 | 263 | 1.0 | 8.0 | 0.00 | 0.00 | 0.00 | 84 | 1003.1 |
| 20260505121822 | 70 | 188 | 2.0 | 8.0 | 0.00 | 0.00 | 0.00 | 84 | 1003.1 |
| 20260505121321 | 70 | 230 | 1.0 | 8.0 | 0.00 | 0.00 | 0.00 | 84 | 1002.9 |
| 20260505120821 | 70 | 210 | 1.0 | 6.0 | 0.00 | 0.00 | 0.00 | 84 | 1002.9 |
| 20260505120320 | 70 | 237 | 2.0 | 7.0 | 0.00 | 0.00 | 0.00 | 84 | 1002.7 |
| 20260505115824 | 70 | 214 | 2.0 | 7.0 | 0.00 | 0.00 | 0.00 | 84 | 1002.9 |
| 20260505115819 | 70 | 258 | 2.0 | 7.0 | 0.00 | 0.00 | 0.00 | 84 | 1002.8 |
| 20260505114936 | 70 | 215 | 2.0 | 8.0 | 0.00 | 0.00 | 0.00 | 84 | 1002.9 |
| 20260505114824 | 70 | 212 | 2.0 | 8.0 | 0.00 | 0.00 | 0.00 | 84 | 1002.9 |
| 20260505114819 | 70 | 243 | 1.0 | 6.0 | 0.00 | 0.00 | 0.00 | 84 | 1003.0 |
| 20260505113319 | 70 | 240 | 1.0 | 7.0 | 0.00 | 0.00 | 0.00 | 84 | 1002.8 |
| 20260505112820 | 70 | 207 | 1.0 | 5.0 | 0.00 | 0.00 | 0.00 | 84 | 1002.8 |